Weather History for Sturgeon Bay, WI

Change the Weather History Date:

Thursday, April 4, 2013

  Actual Average Record
Temperature  
Mean Temperature 39 °F -  
Max Temperature 48 °F 45 °F 72 °F (1921)
Min Temperature 30 °F 28 °F 2 °F (1923)
Degree Days  
Heating Degree Days 26    
Moisture  
Dew Point 24 °F    
Average Humidity 55    
Maximum Humidity 75    
Minimum Humidity 42    
Precipitation  
Precipitation 0.00 in - - ()
Sea Level Pressure  
Sea Level Pressure 30.01 in    
Wind  
Wind Speed 13 mph (SW)    
Max Wind Speed 22 mph    
Max Gust Speed 26 mph    
Visibility 10 miles    
Events      
Averages and records for this station are not official NWS values.
T = Trace of Precipitation, MM = Missing Value Source: NWS Daily Summary

Daily Weather History Graph

Daily Weather History Graph

Search for Another Location

Airport:

Trip Planner

Search our weather history database for the weather conditions in past years. The results will help you decide how hot, cold, wet, or windy it might be!

Date:

Astronomy

Apr. 04, 2013 Rise Set
Actual Time 6:24 AM CDT 7:21 PM CDT
Civil Twilight 5:54 AM CDT 7:51 PM CDT
Nautical Twilight 5:19 AM CDT 8:26 PM CDT
Astronomical Twilight 4:42 AM CDT 9:04 PM CDT
Moon 3:05 AM CDT (4/4) 1:25 PM CDT (4/4)
Length of Visible Light 13h 56m
Length of Day
12h 57m
Waning Crescent, 33% of the Moon is Illuminated
Apr 4
Waning Crescent
Apr 10
New
Apr 18
First Quarter
Apr 25
Full
May 2
Last Quarter

Hourly Weather History & Observations

Time (CDT) Temp. Windchill Dew Point Humidity Pressure Visibility Wind Dir Wind Speed Gust Speed Precip Events Conditions
12:15 AM 30.2 °F 20.2 °F 17.6 °F 60% 30.20 in 10.0 mi South 12.7 mph - N/A   Clear
12:35 AM 30.2 °F 19.8 °F 17.6 °F 60% 30.19 in 10.0 mi South 13.8 mph - N/A   Clear
12:55 AM 30.2 °F 20.2 °F 17.6 °F 60% 30.18 in 10.0 mi South 12.7 mph 18.4 mph N/A   Clear
1:15 AM 30.2 °F 20.8 °F 17.6 °F 60% 30.17 in 10.0 mi South 11.5 mph - N/A   Clear
1:35 AM 30.2 °F 20.2 °F 17.6 °F 60% 30.16 in 10.0 mi SSW 12.7 mph - N/A   Clear
1:55 AM 30.2 °F 20.8 °F 17.6 °F 60% 30.14 in 10.0 mi South 11.5 mph - N/A   Clear
2:15 AM 30.2 °F 19.8 °F 17.6 °F 60% 30.14 in 10.0 mi SSW 13.8 mph - N/A   Clear
2:35 AM 30.2 °F 21.3 °F 19.4 °F 64% 30.13 in 10.0 mi SSW 10.4 mph - N/A   Clear
2:55 AM 30.2 °F 20.2 °F 19.4 °F 64% 30.12 in 10.0 mi South 12.7 mph - N/A   Clear
3:15 AM 30.2 °F 20.2 °F 17.6 °F 60% 30.11 in 10.0 mi SSW 12.7 mph - N/A   Clear
3:35 AM 30.2 °F 19.8 °F 19.4 °F 64% 30.10 in 10.0 mi SSW 13.8 mph 20.7 mph N/A   Clear
3:55 AM 32.0 °F 22.5 °F 17.6 °F 55% 30.10 in 10.0 mi SSW 12.7 mph - N/A   Clear
4:15 AM 32.0 °F 22.5 °F 17.6 °F 55% 30.09 in 10.0 mi SSW 12.7 mph - N/A   Clear
4:35 AM 32.0 °F 21.6 °F 17.6 °F 55% 30.09 in 10.0 mi SSW 15.0 mph - N/A   Clear
4:55 AM 32.0 °F 21.6 °F 17.6 °F 55% 30.08 in 10.0 mi SSW 15.0 mph - N/A   Clear
5:15 AM 32.0 °F 21.2 °F 17.6 °F 55% 30.07 in 10.0 mi SSW 16.1 mph - N/A   Clear
5:35 AM 32.0 °F 21.6 °F 17.6 °F 55% 30.07 in 10.0 mi South 15.0 mph - N/A   Clear
5:55 AM 32.0 °F 21.6 °F 17.6 °F 55% 30.06 in 10.0 mi SSW 15.0 mph - N/A   Partly Cloudy
6:15 AM 32.0 °F 21.6 °F 17.6 °F 55% 30.05 in 10.0 mi SSW 15.0 mph - N/A   Partly Cloudy
6:35 AM 32.0 °F 21.6 °F 19.4 °F 60% 30.04 in 10.0 mi SSW 15.0 mph - N/A   Clear
6:55 AM 33.8 °F 23.9 °F 19.4 °F 56% 30.03 in 10.0 mi SSW 15.0 mph - N/A   Clear
7:15 AM 33.8 °F 23.9 °F 19.4 °F 56% 30.03 in 10.0 mi SSW 15.0 mph 21.9 mph N/A   Clear
7:35 AM 35.6 °F 25.5 °F 19.4 °F 52% 30.03 in 10.0 mi SSW 17.3 mph 20.7 mph N/A   Clear
7:55 AM 37.4 °F 28.5 °F 19.4 °F 48% 30.02 in 10.0 mi SSW 15.0 mph 21.9 mph N/A   Clear
8:15 AM 37.4 °F 28.2 °F 19.4 °F 48% 30.01 in 10.0 mi SW 16.1 mph 21.9 mph N/A   Scattered Clouds
8:35 AM 39.2 °F 30.8 °F 17.6 °F 42% 30.01 in 10.0 mi SW 15.0 mph 26.5 mph N/A   Partly Cloudy
8:55 AM 39.2 °F 30.8 °F 19.4 °F 45% 30.00 in 10.0 mi SW 15.0 mph 23.0 mph N/A   Partly Cloudy
9:15 AM 41.0 °F 31.9 °F 19.4 °F 42% 29.99 in 10.0 mi WSW 19.6 mph 24.2 mph N/A   Scattered Clouds
9:35 AM 42.8 °F 33.8 °F 21.2 °F 42% 29.99 in 10.0 mi SW 21.9 mph 26.5 mph N/A   Overcast
9:55 AM 42.8 °F 35.1 °F 21.2 °F 42% 29.99 in 10.0 mi WSW 16.1 mph 26.5 mph N/A   Overcast
10:15 AM 42.8 °F 35.1 °F 21.2 °F 42% 29.99 in 10.0 mi WSW 16.1 mph 24.2 mph N/A   Overcast
10:35 AM 41.0 °F 32.8 °F 21.2 °F 45% 29.99 in 10.0 mi WSW 16.1 mph 24.2 mph N/A   Overcast
10:55 AM 42.8 °F 34.8 °F 21.2 °F 42% 29.98 in 10.0 mi WSW 17.3 mph 23.0 mph N/A   Overcast
11:35 AM 44.6 °F 37.8 °F 24.8 °F 46% 29.97 in 10.0 mi WSW 15.0 mph 20.7 mph N/A   Mostly Cloudy
11:55 AM 46.4 °F 39.2 °F 24.8 °F 43% 29.97 in 10.0 mi SW 18.4 mph 23.0 mph N/A   Mostly Cloudy
12:15 PM 46.4 °F 41.1 °F 24.8 °F 43% 29.97 in 10.0 mi SW 11.5 mph - N/A   Overcast
12:35 PM 46.4 °F 40.4 °F 24.8 °F 43% 29.96 in 10.0 mi WSW 13.8 mph - N/A   Overcast
12:55 PM 46.4 °F 39.5 °F 24.8 °F 43% 29.95 in 10.0 mi WSW 17.3 mph 20.7 mph N/A   Overcast
1:15 PM 46.4 °F 41.1 °F 24.8 °F 43% 29.95 in 10.0 mi WSW 11.5 mph - N/A   Overcast
1:35 PM 44.6 °F 38.8 °F 26.6 °F 49% 29.95 in 10.0 mi WNW 11.5 mph 17.3 mph N/A   Overcast
1:55 PM 42.8 °F 38.0 °F 30.2 °F 61% 29.95 in 10.0 mi West 8.1 mph - N/A   Overcast
2:15 PM 44.6 °F 40.2 °F 30.2 °F 57% 29.94 in 10.0 mi West 8.1 mph - N/A   Overcast
2:35 PM 44.6 °F 39.7 °F 30.2 °F 57% 29.94 in 10.0 mi West 9.2 mph - N/A   Mostly Cloudy
2:55 PM 44.6 °F 39.2 °F 30.2 °F 57% 29.93 in 10.0 mi WSW 10.4 mph - N/A   Clear
3:15 PM 46.4 °F 40.4 °F 30.2 °F 53% 29.92 in 10.0 mi WSW 13.8 mph 17.3 mph N/A   Clear
3:35 PM 46.4 °F 40.4 °F 30.2 °F 53% 29.92 in 10.0 mi WSW 13.8 mph - N/A   Clear
3:55 PM 48.2 °F - 30.2 °F 50% 29.92 in 10.0 mi WSW 13.8 mph 17.3 mph N/A   Clear
4:15 PM 48.2 °F - 30.2 °F 50% 29.92 in 10.0 mi WSW 13.8 mph - N/A   Clear
4:35 PM 48.2 °F - 30.2 °F 50% 29.92 in 10.0 mi WSW 11.5 mph - N/A   Clear
4:55 PM 48.2 °F - 30.2 °F 50% 29.92 in 10.0 mi West 10.4 mph - N/A   Clear
5:15 PM 48.2 °F - 30.2 °F 50% 29.91 in 10.0 mi West 11.5 mph - N/A   Clear
5:35 PM 48.2 °F - 30.2 °F 50% 29.92 in 10.0 mi WSW 10.4 mph - N/A   Clear
5:55 PM 48.2 °F - 30.2 °F 50% 29.92 in 10.0 mi WSW 10.4 mph - N/A   Clear
6:15 PM 48.2 °F - 30.2 °F 50% 29.93 in 10.0 mi WSW 10.4 mph - N/A   Clear
6:35 PM 48.2 °F - 30.2 °F 50% 29.93 in 10.0 mi WSW 9.2 mph - N/A   Clear
6:55 PM 46.4 °F 42.4 °F 30.2 °F 53% 29.93 in 10.0 mi WSW 8.1 mph - N/A   Clear
7:15 PM 46.4 °F 43.5 °F 30.2 °F 53% 29.93 in 10.0 mi WSW 5.8 mph - N/A   Clear
7:35 PM 44.6 °F 42.2 °F 30.2 °F 57% 29.94 in 10.0 mi West 4.6 mph - N/A   Clear
7:55 PM 44.6 °F 40.2 °F 30.2 °F 57% 29.95 in 10.0 mi NW 8.1 mph - N/A   Clear
8:15 PM 42.8 °F 38.0 °F 26.6 °F 53% 29.96 in 10.0 mi North 8.1 mph - N/A   Clear
8:35 PM 41.0 °F 33.5 °F 24.8 °F 53% 29.97 in 10.0 mi North 13.8 mph - N/A   Clear
8:55 PM 41.0 °F 33.5 °F 26.6 °F 57% 29.98 in 10.0 mi North 13.8 mph - N/A   Clear
9:15 PM 37.4 °F 29.8 °F 26.6 °F 65% 30.00 in 10.0 mi NNE 11.5 mph - N/A   Clear
9:35 PM 39.2 °F 32.0 °F 28.4 °F 65% 30.01 in 10.0 mi NE 11.5 mph - N/A   Clear
9:55 PM 37.4 °F 30.8 °F 26.6 °F 65% 30.03 in 10.0 mi NE 9.2 mph - N/A   Clear
10:15 PM 37.4 °F 31.4 °F 26.6 °F 65% 30.04 in 10.0 mi NNE 8.1 mph - N/A   Clear
10:35 PM 37.4 °F 30.3 °F 26.6 °F 65% 30.04 in 10.0 mi NE 10.4 mph - N/A   Clear
10:55 PM 35.6 °F 31.7 °F 26.6 °F 70% 30.05 in 10.0 mi NE 4.6 mph - N/A   Clear
11:15 PM 33.8 °F 29.6 °F 26.6 °F 75% 30.05 in 10.0 mi NNE 4.6 mph - N/A   Clear
11:35 PM 33.8 °F 28.6 °F 26.6 °F 75% 30.05 in 10.0 mi NNE 5.8 mph - N/A   Clear
11:55 PM 33.8 °F 30.8 °F 24.8 °F 70% 30.05 in 10.0 mi ENE 3.5 mph - N/A   Clear